EW4366 Weather Reports


time (UTC)temp
F
wind
direction
speed
knots
gust
knots
rain 1hr
in
rain 24hr
in
rain mn
in
humidity
%
barometer
mb
20260502164015 57 0.0 0.0 0.00 0.00 0.00 41 1013.2
20260502163015 57 293 0.9 3.5 0.00 0.00 0.00 44 1013.5
20260502162016 56 0.0 0.9 0.00 0.00 0.00 48 1013.6
20260502161015 56 0.0 0.9 0.00 0.00 0.00 45 1013.8
20260502152015 52 315 1.7 2.6 0.00 0.00 0.00 56 1014.1
20260502151016 52 0.0 0.0 0.00 0.00 0.00 54 1014.2
20260502123017 45 0.0 0.0 0.00 0.00 0.00 69 1014.5
20260502122017 45 135 0.9 2.6 0.00 0.00 0.00 69 1014.6
20260502121017 44 0.0 0.0 0.00 0.00 0.00 69 1014.7
20260502115017 44 203 0.9 1.7 0.00 0.00 0.00 71 1014.7
20260502114017 44 0.0 0.0 0.00 0.00 0.00 71 1014.6
20260502113017 43 0.0 0.0 0.00 0.00 0.00 71 1014.7
20260502112017 43 0.0 0.9 0.00 0.00 0.00 72 1014.6
20260502111057 43 0.0 0.0 0.00 0.00 0.00 71 1014.5
20260502110017 43 0.0 0.0 0.00 0.00 0.00 70 1014.6
20260502105017 44 315 0.9 1.7 0.00 0.00 0.00 69 1014.6
20260502104017 44 0.0 1.7 0.00 0.00 0.00 68 1014.4
20260502103017 44 0.0 0.0 0.00 0.00 0.00 68 1014.4
20260502102018 44 0.0 0.0 0.00 0.00 0.00 67 1014.6
20260502101017 45 0.0 0.0 0.00 0.00 0.00 67 1014.8
20260502091017 46 0.0 1.7 0.00 0.00 0.00 59 1015.0
20260502071057 49 0.0 0.9 0.00 0.00 0.00 61 1014.7
20260502070017 49 0.0 0.9 0.00 0.00 0.00 64 1014.7
20260502065017 49 338 0.9 1.7 0.00 0.00 0.00 68 1014.6
20260502064017 50 0.0 0.0 0.00 0.00 0.00 71 1014.9
20260502063017 50 0.0 0.0 0.00 0.00 0.00 70 1014.7
20260502062017 50 0.0 0.0 0.00 0.00 0.00 71 1014.8
20260502061057 50 0.0 0.0 0.00 0.00 0.00 71 1014.7
20260502060037 50 113 2.6 7.0 0.00 0.00 0.00 70 1014.6
20260502055017 50 68 0.9 1.7 0.00 0.00 0.00 70 1014.8
20260502054016 51 0.0 0.0 0.00 0.00 0.00 70 1014.7
20260502053016 51 113 0.9 3.5 0.00 0.00 0.00 70 1014.6
20260502052017 51 0 0.9 5.2 0.00 0.00 0.00 70 1014.7
20260502051017 51 0.0 0.0 0.00 0.00 0.00 69 1014.7
20260502050017 51 0.0 0.0 0.00 0.00 0.00 68 1014.7
20260502045017 51 0.0 0.9 0.00 0.00 0.00 68 1014.7
20260502044036 52 0.0 0.0 0.00 0.00 0.00 68 1014.8
20260502043016 52 0.0 0.0 0.00 0.00 0.00 68 1014.7
20260502042016 52 0.0 0.0 0.00 0.00 0.00 67 1014.6
20260502041036 52 0.0 0.0 0.00 0.00 0.00 65 1014.7
20260502040016 52 225 0.9 2.6 0.00 0.00 0.00 64 1014.5
20260502035016 52 180 0.9 1.7 0.00 0.00 0.00 65 1014.6
20260502034016 53 158 0.9 1.7 0.00 0.00 0.00 66 1014.8
20260502033016 53 293 0.9 1.7 0.00 0.00 0.00 66 1014.6
20260502032017 53 315 0.9 1.7 0.00 0.00 0.00 66 1014.6
20260502031037 54 0.0 2.6 0.00 0.00 0.00 67 1014.7
20260502030016 54 0.0 0.0 0.00 0.00 0.00 67 1014.4
20260502025018 54 0.0 0.0 0.00 0.00 0.00 68 1014.3
20260502024016 54 0.0 0.9 0.00 0.00 0.00 68 1014.2
20260502023016 54 293 1.7 3.5 0.00 0.00 0.00 67 1014.1
20260502022016 55 45 0.9 2.6 0.00 0.00 0.00 67 1013.9
20260502021016 55 0.0 0.9 0.00 0.00 0.00 68 1013.9
20260502020036 55 203 1.7 3.5 0.00 0.00 0.00 67 1013.4
20260502015016 55 0.0 0.9 0.00 0.00 0.00 67 1013.0
20260502014016 55 0.0 1.7 0.00 0.00 0.00 66 1013.0
20260502013016 55 248 0.9 1.7 0.00 0.00 0.00 65 1012.9
20260502012016 56 45 0.9 4.3 0.00 0.00 0.00 64 1012.6
20260502011016 57 248 0.9 3.5 0.00 0.00 0.00 61 1012.3
20260502010016 58 315 1.7 7.0 0.00 0.00 0.00 58 1011.6
20260502005016 60 0.0 0.9 0.00 0.00 0.00 54 1011.4
20260502004016 62 315 1.7 3.5 0.00 0.00 0.00 48 1011.1
20260502003016 63 338 1.7 2.6 0.00 0.00 0.00 42 1010.4
20260502002016 63 270 0.9 1.7 0.00 0.00 0.00 41 1010.0
20260502001016 63 270 0.9 2.6 0.00 0.00 0.00 40 1010.0
20260502000016 64 293 0.9 2.6 0.00 0.00 0.00 40 1009.7
20260501235016 64 0.0 1.7 0.00 0.00 0.00 39 1009.5
20260501234036 64 0.0 0.9 0.00 0.00 0.00 38 1009.1
20260501233036 65 315 2.6 4.3 0.00 0.00 0.00 38 1009.1
20260501232016 65 0.0 0.0 0.00 0.00 0.00 39 1009.1
20260501231016 65 0.0 0.9 0.00 0.00 0.00 38 1009.0
20260501230016 66 0.0 0.0 0.00 0.00 0.00 38 1009.2
20260501225016 66 0.0 0.0 0.00 0.00 0.00 36 1009.3
20260501224037 68 0.0 0.9 0.00 0.00 0.00 35 1009.1
20260501223036 68 0.0 0.0 0.00 0.00 0.00 34 1009.2
20260501222016 68 0.0 0.0 0.00 0.00 0.00 33 1009.2
20260501221016 68 0.0 0.0 0.00 0.00 0.00 35 1009.3
20260501220016 68 293 0.9 1.7 0.00 0.00 0.00 33 1009.3
20260501215016 69 338 0.9 3.5 0.00 0.00 0.00 30 1009.2
20260501214016 70 248 0.9 3.5 0.00 0.00 0.00 29 1009.1
20260501213036 70 0.0 0.9 0.00 0.00 0.00 30 1009.2
20260501212016 71 248 1.7 6.1 0.00 0.00 0.00 27 1009.0
20260501211016 71 0.0 0.9 0.00 0.00 0.00 30 1009.1
20260501210016 70 270 0.9 6.1 0.00 0.00 0.00 27 1009.3
20260501205016 71 203 2.6 13.9 0.00 0.00 0.00 28 1009.1
20260501204016 69 248 2.6 5.2 0.00 0.00 0.00 30 1009.0
20260501203016 68 225 1.7 4.3 0.00 0.00 0.00 31 1009.2
20260501202016 68 203 1.7 3.5 0.00 0.00 0.00 31 1009.2
20260501201037 68 203 2.6 7.0 0.00 0.00 0.00 30 1009.4
20260501200016 68 293 1.7 3.5 0.00 0.00 0.00 28 1009.5
20260501195016 68 270 1.7 5.2 0.00 0.00 0.00 30 1009.6
20260501194016 69 270 0.9 2.6 0.00 0.00 0.00 29 1009.7
20260501193016 69 270 1.7 6.1 0.00 0.00 0.00 31 1009.9
20260501192016 70 270 1.7 2.6 0.00 0.00 0.00 28 1010.1
20260501191016 70 0.0 1.7 0.00 0.00 0.00 29 1010.1
20260501190016 69 203 1.7 4.3 0.00 0.00 0.00 28 1010.5
20260501185016 69 203 0.9 2.6 0.00 0.00 0.00 34 1010.5
20260501184016 68 225 1.7 3.5 0.00 0.00 0.00 35 1010.6
20260501183016 68 180 1.7 2.6 0.00 0.00 0.00 37 1010.7
20260501182015 68 0.0 0.9 0.00 0.00 0.00 36 1010.9
20260501181015 67 293 0.9 2.6 0.00 0.00 0.00 36 1011.0
20260501180016 67 158 1.7 4.3 0.00 0.00 0.00 36 1011.2
20260501175016 67 248 0.9 1.7 0.00 0.00 0.00 37 1011.5
20260501174016 66 0.0 1.7 0.00 0.00 0.00 38 1011.7
20260501173016 66 135 6.1 9.6 0.00 0.00 0.00 34 1011.8
20260501172016 65 0.0 0.9 0.00 0.00 0.00 37 1012.0